Location: *
(11.7485°N, 79.7483°E)
Time: 11:05:13
(UTC+00:00)

YAOGAN 6 - Pass Details

Date: 22 January 2021
Orbit: 465 x 502 km, 97.0° (Epoch: 24 February)

Event Time Altitude Azimuth Distance (km) Brightness Sun altitude
Rises 00:34:17 0° 358° (N) 2,587 6.0 -8.2°
Reaches altitude 10° 00:36:29 10° 349° (NNW) 1,702 5.0 -7.6°
Maximum altitude 00:39:51 35° 282° (WNW) 822 3.2 -6.9°
Drops below altitude 10° 00:43:12 10° 215° (SW) 1,693 5.2 -6.1°
Sets 00:45:23 0° 206° (SSW) 2,570 6.2 -5.6°
